Wind_Speed
43 42 48 49 44 43 43 42 39 38 41 30 29 27 30 32 38 43 46 47 49 50 50 48 44 41 42 44 44 40 40 42 42 39 42 44 46 46 49 49 45 46 43 40
55 48 56 54 52 47 44 45 43 46 45 37 36 34 42 43 45 43 43 47 50 49 45 47 48 49 47 44 44 46 47 44 41 42 42 44 48 49 49 52 51 51 49 47
51 50 54 57 58 56 54 55 55 49 52 54 47 52 44 48 50 48 53 53 49 49 48 48 49 48 48 47 46 46 44 45 50 49 50 52 52 53 55 55 58 60 58 57
59 64 64 64 67 68 63 62 59 61 60 59 54 51 61 61 65 60 59 55 55 51 56 59 56 60 62 62 67 64 59 61 58 60 60 55 55 62 59 58 60 63 64 64
69 68 63 64 66 70 67 71 66 62 62 65 61 63 59 66 72 67 64 65 60 66 70 71 72 69 71 71 70 75 76 75 72 74 69 68 66 64 67 68 66 66 66 65
83 80 72 74 73 75 75 73 77 76 72 63 66 66 63 68 67 79 77 76 74 76 75 77 76 78 80 80 83 84 89 86 87 84 79 80 80 80 73 75 75 74 75 76
72 79 75 77 84 86 84 84 82 82 85 75 78 75 66 76 77 76 80 87 86 88 90 90 94 92 94 92 89 91 91 93 92 91 91 91 89 87 86 82 83 85 85 82
86 82 75 89 90 90 85 92 95 89 79 88 85 80 75 84 83 85 90 89 93 97 100 102 107 114 108 106 101 101 99 100 101 97 94 94 92 94 97 95 94 90 94 95
100 82 90 84 88 95 101 91 101 107 97 100 89 87 79 94 93 95 96 99 100 102 108 114 116 121 118 115 115 110 112 110 109 113 110 107 109 111 104 102 104 103 101 103
106 109 98 101 103 99 103 108 102 103 111 116 107 98 97 94 98 104 106 107 112 114 118 124 126 124 123 121 126 121 114 115 121 120 117 115 116 112 112 113 108 111 109 108
109 114 105 109 106 106 110 109 113 115 119 116 118 119 109 110 109 106 115 118 122 124 127 128 128 134 130 128 127 125 122 118 123 128 124 120 117 116 116 116 118 118 118 118
116 123 118 111 111 114 113 118 118 114 116 125 130 130 131 130 125 126 129 126 129 132 136 135 128 130 133 129 127 129 126 130 127 130 129 123 123 122 121 116 119 122 123 123
119 118 122 122 121 120 126 119 123 128 132 135 134 139 140 142 142 143 147 153 148 137 131 126 125 125 122 124 123 130 135 127 123 128 127 125 124 123 121 119 116 118 123 121
128 129 130 134 134 125 129 131 131 135 139 144 152 154 149 149 153 160 149 137 127 112 110 113 111 113 114 113 116 132 131 120 120 121 123 121 119 119 117 116 119 118 121 122
132 133 133 133 135 141 141 143 145 152 156 162 161 156 136 140 137 130 128 125 124 126 118 107 101 99 102 106 111 114 119 119 117 116 116 114 117 117 120 121 122 121 123 124
142 148 146 150 148 153 158 158 153 146 139 131 139 132 131 122 122 122 121 118 116 117 115 110 104 96 92 95 97 103 112 116 117 121 120 116 115 114 114 116 116 114 112 115
117 124 130 123 123 130 122 118 128 131 122 126 126 124 121 115 116 116 114 110 108 106 106 106 105 102 97 92 93 92 101 111 113 117 122 122 118 120 122 118 116 120 121 118
118 121 122 120 123 121 116 119 124 124 114 115 119 117 114 113 114 112 115 109 107 105 104 102 100 99 98 96 95 94 97 100 105 109 114 120 123 121 123 125 121 118 118 120
120 122 125 125 125 122 114 115 111 109 103 107 109 110 111 111 107 108 114 109 108 107 104 103 102 100 99 100 97 94 95 97 102 107 108 109 115 121 123 123 126 125 122 118
116 120 124 119 117 111 101 104 104 107 105 107 108 107 108 107 103 103 110 109 107 107 106 104 103 102 102 102 100 97 96 96 98 101 105 108 110 112 115 119 122 125 127 126
104 105 107 109 113 107 103 102 102 103 103 101 102 102 103 102 101 99 100 101 102 101 101 100 98 97 98 99 97 97 98 100 100 99 101 104 107 107 110 112 115 119 121 122
101 101 100 103 103 101 99 95 96 96 93 93 94 94 94 93 93 93 93 94 96 96 95 94 91 91 93 95 93 92 93 94 93 93 95 99 103 105 106 106 108 114 117 117
95 94 94 94 96 95 93 93 90 92 86 89 88 88 88 86 86 85 87 90 90 91 91 91 89 89 91 94 93 91 94 94 93 93 94 95 97 99 100 98 98 99 105 111
92 93 92 93 93 91 91 91 89 88 88 87 87 86 87 85 86 86 87 88 88 91 92 92 92 92 91 95 95 94 93 92 91 91 93 93 92 94 97 96 95 95 96 98
91 90 91 89 94 90 88 90 89 88 88 86 86 86 86 86 86 86 88 90 91 92 93 91 90 90 89 88 89 88 85 83 81 83 85 86 86 87 89 90 90 88 89 91
91 88 88 83 90 89 81 91 89 87 86 86 85 84 84 84 86 86 87 89 89 89 88 85 84 81 81 82 83 83 83 83 81 80 81 81 80 81 82 83 84 84 83 84
Wind_Direction
262 263 265 264 265 265 267 263 266 267 268 263 266 267 265 274 283 284 282 283 282 280 281 277 276 265 264 275 279 276 279 278 277 276 276 274 274 273 272 271 267 263 263 263
268 268 268 269 271 270 272 266 261 277 275 267 263 268 266 268 268 272 280 287 287 287 286 283 276 273 268 265 266 278 281 280 279 278 274 273 272 271 269 271 270 269 267 264
268 267 272 271 269 268 269 269 269 265 271 276 278 275 272 266 268 267 276 279 285 291 290 286 279 276 275 274 277 277 276 272 276 275 280 278 274 272 272 272 271 270 270 268
277 275 278 276 274 275 275 276 272 266 262 264 269 271 276 272 276 276 277 284 281 283 287 289 284 282 283 280 286 284 284 281 275 279 275 277 276 280 272 272 272 273 272 270
280 277 280 278 277 276 274 275 275 272 271 267 268 265 269 272 274 277 279 282 284 288 291 293 290 285 288 287 286 287 284 284 284 283 278 271 271 274 269 269 269 265 266 269
278 276 277 278 279 281 277 279 278 272 269 267 266 265 271 266 271 277 282 284 291 291 289 289 291 290 283 281 280 286 285 282 285 280 276 276 279 277 271 270 269 268 265 262
277 274 273 274 278 277 277 276 277 272 270 271 263 266 272 273 283 288 281 280 286 291 295 293 292 291 291 288 277 271 272 271 272 273 278 277 271 271 270 269 269 270 268 265
285 279 278 269 277 280 278 275 281 278 273 272 276 270 278 276 280 287 289 289 289 286 290 291 291 293 290 286 285 279 271 269 271 269 266 268 265 268 269 269 267 265 265 268
288 284 276 272 278 280 279 282 274 284 288 283 284 289 282 276 277 284 284 287 285 283 283 286 287 288 289 284 284 284 276 270 269 272 268 265 267 266 264 260 265 262 262 263
283 287 286 276 282 280 276 275 280 274 279 277 280 281 286 277 278 274 280 281 282 282 283 284 285 285 284 281 277 280 275 270 268 271 271 266 266 266 261 262 262 262 259 260
279 280 281 280 282 281 281 282 279 276 276 283 280 279 281 277 278 275 278 279 281 280 283 283 282 283 281 280 276 278 277 274 274 268 271 268 266 266 265 261 261 257 256 259
281 282 281 281 280 283 282 274 278 279 277 281 285 286 283 283 280 278 278 277 278 280 282 280 277 276 277 275 275 274 273 276 273 266 267 266 266 264 261 260 259 259 252 255
278 277 277 280 280 279 278 276 277 277 277 280 279 280 282 280 280 280 280 281 280 278 278 276 274 271 270 270 270 271 271 272 266 264 266 267 265 264 263 261 260 257 254 254
273 273 276 275 276 273 271 272 274 275 277 277 277 281 282 280 278 282 283 282 281 278 274 273 269 268 269 268 267 265 267 267 266 264 264 261 261 263 265 263 260 258 258 255
270 270 271 271 273 274 273 272 274 278 278 279 280 280 281 280 280 280 282 283 283 282 279 275 270 266 262 261 261 262 263 265 265 262 261 259 259 261 262 261 263 263 262 260
274 275 276 276 276 276 276 277 279 279 278 279 280 281 280 280 281 281 281 280 279 278 279 278 275 269 264 261 257 256 257 257 259 260 260 259 257 258 258 258 260 261 259 261
277 277 275 275 278 276 279 281 278 280 281 281 282 283 282 281 280 279 279 278 280 278 277 276 275 274 272 264 260 256 254 256 256 255 255 257 258 258 258 258 258 258 260 261
277 278 277 278 276 278 280 279 279 280 280 280 280 280 280 279 279 280 279 278 277 276 275 274 273 273 273 272 268 263 260 257 256 255 254 255 256 256 256 257 258 259 259 259
279 279 279 281 281 282 283 281 281 280 278 277 276 277 277 277 278 279 278 278 278 277 277 276 276 275 273 272 269 266 263 261 259 258 257 255 255 255 255 256 257 257 257 258
279 279 281 283 282 281 280 279 278 277 278 277 277 277 277 277 276 275 275 277 277 277 277 276 275 274 273 273 272 271 269 265 262 260 260 258 256 256 255 255 255 256 257 258
280 280 281 281 280 280 281 280 279 278 277 277 278 278 278 279 278 277 276 277 277 277 275 275 274 274 273 272 272 271 269 267 265 264 263 261 260 256 255 255 255 255 255 256
279 278 279 279 281 280 281 280 280 279 279 279 279 279 278 279 279 279 280 278 278 277 278 278 279 278 277 276 274 273 272 271 270 268 265 264 263 262 260 257 252 253 253 254
279 281 280 280 279 281 281 280 279 280 281 280 280 279 280 280 280 279 278 278 278 279 279 279 278 278 278 278 278 277 275 274 272 271 268 266 264 264 263 261 259 257 254 253
282 282 281 280 282 281 281 281 280 280 281 280 280 281 281 281 281 280 280 279 279 279 278 279 279 279 279 279 278 278 275 273 272 270 269 268 266 265 264 263 261 259 257 255
280 280 280 282 279 280 282 282 281 283 283 282 282 283 283 282 281 279 279 279 280 280 280 281 281 281 280 280 279 277 276 275 274 272 271 270 269 267 266 265 264 261 258 256
281 280 280 280 280 281 280 281 282 283 283 284 285 285 284 283 282 282 282 281 281 281 281 282 283 283 281 279 278 278 278 277 276 274 274 273 271 269 268 266 265 263 260 258
Height
10742 10744 10738 10736 10738 10740 10740 10741 10742 10738 10738 10740 10737 10739 10734 10729 10720 10715 10712 10715 10713 10711 10713 10715 10720 10721 10719 10717 10716 10714 10712 10711 10708 10709 10707 10705 10703 10703 10701 10699 10697 10695 10694 10696
10730 10735 10723 10725 10724 10726 10727 10729 10729 10733 10728 10732 10730 10728 10724 10718 10708 10705 10704 10703 10700 10701 10702 10703 10705 10706 10706 10707 10705 10703 10701 10700 10700 10698 10697 10695 10693 10691 10689 10686 10685 10683 10683 10682
10716 10714 10710 10712 10708 10710 10712 10714 10716 10718 10717 10719 10722 10719 10713 10704 10695 10696 10693 10692 10691 10690 10689 10690 10691 10691 10692 10692 10692 10691 10690 10688 10688 10686 10686 10686 10684 10680 10676 10676 10674 10673 10672 10670
10702 10695 10695 10695 10692 10690 10697 10691 10695 10698 10700 10705 10703 10709 10698 10693 10684 10685 10682 10681 10680 10677 10674 10674 10676 10675 10674 10674 10673 10673 10673 10671 10672 10670 10669 10669 10668 10667 10664 10662 10660 10659 10659 10657
10681 10679 10678 10676 10671 10668 10675 10672 10673 10677 10678 10686 10687 10685 10683 10674 10668 10669 10671 10668 10665 10663 10658 10657 10655 10654 10654 10654 10652 10651 10650 10650 10650 10650 10649 10650 10648 10647 10646 10644 10642 10641 10640 10641
10660 10662 10662 10656 10650 10647 10648 10650 10648 10650 10652 10665 10659 10662 10674 10653 10657 10649 10650 10645 10643 10637 10639 10638 10638 10638 10635 10631 10628 10626 10624 10624 10626 10625 10625 10626 10627 10625 10622 10621 10622 10621 10620 10619
10642 10642 10643 10637 10629 10625 10623 10625 10621 10622 10622 10634 10630 10640 10650 10628 10631 10625 10620 10618 10620 10613 10611 10609 10608 10610 10611 10611 10611 10607 10601 10597 10594 10596 10598 10599 10600 10601 10600 10598 10596 10597 10596 10596
10614 10627 10617 10621 10609 10603 10603 10598 10592 10575 10594 10602 10600 10622 10626 10601 10605 10601 10596 10595 10591 10591 10584 10584 10580 10578 10579 10581 10581 10581 10578 10576 10572 10571 10572 10571 10570 10572 10573 10572 10572 10571 10570 10569
10580 10599 10592 10590 10586 10579 10577 10573 10562 10548 10555 10551 10579 10585 10595 10576 10576 10571 10568 10566 10564 10563 10561 10553 10553 10550 10545 10545 10544 10546 10545 10542 10542 10540 10540 10542 10543 10544 10543 10542 10542 10542 10542 10542
10548 10548 10570 10561 10556 10560 10541 10544 10539 10533 10509 10513 10527 10543 10554 10552 10548 10544 10538 10534 10529 10527 10525 10524 10516 10512 10511 10508 10506 10505 10507 10504 10503 10501 10501 10502 10506 10507 10508 10508 10507 10510 10511 10513
10522 10510 10544 10529 10534 10522 10512 10510 10505 10493 10489 10473 10474 10486 10512 10513 10513 10509 10509 10502 10497 10492 10488 10487 10484 10475 10470 10468 10468 10467 10463 10462 10461 10460 10460 10461 10464 10467 10469 10468 10468 10472 10475 10476
10490 10473 10480 10501 10497 10495 10485 10474 10468 10460 10462 10449 10436 10438 10445 10453 10459 10466 10469 10464 10459 10455 10452 10446 10443 10439 10432 10428 10426 10427 10427 10423 10419 10418 10420 10420 10422 10423 10426 10426 10427 10428 10434 10439
10460 10451 10444 10455 10465 10465 10446 10448 10443 10434 10423 10427 10418 10407 10411 10406 10405 10396 10400 10413 10420 10420 10413 10407 10403 10401 10397 10394 10391 10387 10383 10381 10380 10382 10381 10379 10380 10383 10384 10385 10388 10391 10395 10398
10427 10424 10424 10414 10420 10426 10420 10412 10411 10406 10398 10393 10379 10378 10382 10370 10357 10358 10351 10343 10346 10359 10369 10372 10369 10364 10358 10355 10352 10351 10345 10341 10339 10340 10342 10342 10343 10343 10345 10345 10348 10351 10353 10363
10389 10384 10390 10384 10382 10374 10375 10376 10382 10378 10361 10339 10349 10331 10339 10323 10316 10320 10316 10308 10304 10301 10304 10314 10321 10323 10321 10317 10315 10313 10306 10302 10302 10303 10304 10305 10308 10309 10307 10308 10310 10312 10316 10323
10355 10344 10343 10347 10343 10333 10326 10337 10346 10327 10317 10301 10299 10294 10289 10291 10284 10280 10278 10273 10266 10262 10260 10259 10264 10274 10278 10276 10276 10275 10269 10267 10266 10266 10266 10268 10269 10271 10273 10273 10271 10276 10280 10283
10317 10307 10302 10302 10298 10287 10290 10312 10288 10283 10286 10269 10259 10259 10251 10250 10245 10241 10238 10232 10233 10231 10227 10224 10221 10221 10227 10235 10236 10239 10236 10231 10229 10230 10229 10230 10232 10235 10235 10238 10239 10239 10242 10246
10288 10276 10265 10266 10257 10255 10279 10268 10256 10246 10253 10242 10219 10218 10213 10210 10209 10210 10198 10201 10199 10197 10194 10191 10190 10188 10188 10191 10193 10198 10198 10197 10194 10191 10194 10195 10196 10198 10199 10200 10201 10204 10205 10210
10251 10239 10226 10223 10220 10224 10241 10222 10216 10209 10218 10200 10190 10187 10182 10179 10183 10181 10159 10165 10163 10159 10159 10157 10156 10157 10155 10150 10153 10158 10159 10158 10156 10154 10156 10158 10158 10160 10160 10161 10163 10166 10167 10174
10224 10208 10192 10193 10181 10185 10199 10188 10184 10172 10175 10166 10160 10157 10152 10148 10155 10154 10131 10131 10130 10127 10126 10125 10123 10122 10118 10115 10115 10120 10121 10121 10119 10119 10119 10120 10123 10124 10126 10128 10131 10132 10133 10139
10190 10179 10171 10159 10145 10155 10157 10153 10149 10140 10137 10138 10132 10128 10119 10116 10116 10118 10112 10106 10098 10095 10091 10088 10089 10089 10084 10080 10084 10085 10081 10077 10080 10084 10082 10080 10080 10085 10088 10092 10096 10097 10099 10102
10155 10149 10146 10133 10125 10122 10120 10121 10113 10107 10110 10106 10101 10099 10094 10091 10089 10085 10081 10074 10066 10061 10057 10056 10060 10058 10050 10044 10046 10048 10045 10043 10047 10048 10048 10044 10041 10041 10047 10053 10062 10060 10063 10068
10124 10124 10113 10108 10094 10093 10091 10084 10086 10079 10086 10077 10073 10069 10065 10066 10063 10060 10052 10043 10038 10033 10030 10027 10028 10027 10020 10013 10013 10016 10011 10009 10009 10010 10009 10006 10006 10005 10006 10013 10020 10025 10027 10035
10099 10090 10085 10073 10071 10068 10063 10058 10058 10055 10052 10049 10046 10046 10040 10039 10034 10029 10023 10016 10012 10006 10003 10001 9998 9996 9996 9984 9981 9978 9977 9975 9975 9973 9969 9969 9973 9972 9970 9974 9980 9986 9990 9993
10064 10062 10057 10055 10037 10042 10042 10031 10028 10027 10021 10023 10020 10016 10013 10011 10007 10002 9995 9989 9985 9979 9973 9972 9970 9967 9963 9960 9949 9942 9943 9945 9946 9942 9938 9937 9937 9937 9938 9938 9941 9949 9952 9955
10029 10035 10032 10035 10014 10014 10026 10001 10002 10002 9997 9994 9993 9990 9985 9980 9974 9971 9967 9960 9956 9951 9947 9944 9938 9938 9934 9926 9921 9917 9916 9914 9914 9914 9911 9910 9910 9908 9907 9908 9908 9911 9918 9922